Date,TemperatureHighF,TemperatureAvgF,TemperatureLowF,DewpointHighF,DewpointAvgF,DewpointLowF,HumidityHigh,HumidityAvg,HumidityLow,PressureMaxIn,PressureMinIn,WindSpeedMaxMPH,WindSpeedAvgMPH,GustSpeedMaxMPH,PrecipitationSumIn
2012-12-1,62.9,55.1,44.1,57.0,51.3,42.8,100,88,63,29.73,29.57,19,5,19,0.00
2012-12-2,66.3,52.0,40.5,46.5,41.9,36.2,97,71,41,29.85,29.52,21,6,21,0.00
2012-12-3,62.4,57.8,44.6,54.8,43.7,29.7,81,61,32,29.92,29.38,37,15,37,0.00
2012-12-4,61.8,46.4,32.2,32.4,23.9,19.2,73,45,20,30.14,29.92,19,6,19,0.00
2012-12-5,60.2,47.9,37.5,26.3,22.6,17.5,55,38,19,30.10,29.72,34,13,34,0.00
2012-12-6,51.0,47.5,45.1,44.1,37.7,26.2,85,70,45,29.72,29.66,21,9,25,0.00
2012-12-7,43.5,37.8,31.3,36.5,31.8,25.9,91,79,69,29.82,29.69,10,4,12,0.00
2012-12-8,46.0,36.5,26.4,40.8,31.9,23.6,96,84,61,29.83,29.66,16,6,18,0.00
2012-12-9,42.2,31.0,17.3,41.7,20.4,4.7,99,67,43,30.06,29.67,30,13,32,0.00
2012-12-10,34.1,20.4,6.5,4.2,2.2,-0.6,73,48,25,30.08,29.84,26,7,26,0.00
2012-12-11,45.1,30.6,18.0,19.7,12.1,3.1,57,46,33,29.98,29.85,19,6,19,0.00
2012-12-12,52.0,38.4,29.8,16.3,14.7,13.2,53,40,23,29.94,29.81,39,20,39,0.00
2012-12-13,55.3,44.0,33.5,27.0,22.1,17.5,59,42,27,29.90,29.80,28,13,35,0.00
2012-12-14,57.2,47.4,41.9,45.2,35.5,26.5,95,64,50,29.82,29.25,35,15,36,0.04
2012-12-15,57.3,47.8,36.8,45.5,41.1,35.8,96,79,56,29.55,29.20,25,10,30,0.00
2012-12-16,37.3,34.4,30.7,36.4,33.8,30.5,99,98,96,29.58,29.55,10,5,10,0.00
2012-12-17,52.6,38.0,25.8,32.7,28.2,22.9,98,72,32,29.66,29.41,27,9,30,0.00
2012-12-18,58.3,43.7,30.3,30.8,25.5,18.5,80,54,22,29.59,29.40,26,12,26,0.00
2012-12-19,44.1,40.0,29.4,37.0,32.1,25.5,99,74,54,29.64,29.28,45,14,45,0.03
2012-12-20,33.7,26.7,21.6,30.0,20.6,14.3,100,79,51,30.16,29.49,45,18,45,0.00
2012-12-21,30.0,21.3,18.6,20.6,13.6,11.4,76,72,65,30.20,30.13,11,6,13,0.02
2012-12-22,47.1,33.8,24.4,27.8,21.9,15.7,76,63,42,30.01,29.76,12,5,16,0.00
2012-12-23,28.8,22.5,16.4,22.7,17.5,13.2,89,81,72,29.91,29.79,11,7,17,0.00
2012-12-24,23.3,18.4,14.0,13.6,11.1,7.7,85,73,61,30.01,29.90,18,10,26,0.00
2012-12-25,18.4,15.3,10.0,12.3,6.8,2.7,78,69,56,30.22,30.00,24,15,33,0.00
2012-12-26,23.8,13.8,4.5,9.9,5.7,0.2,82,70,53,30.22,30.00,11,4,13,0.00
2012-12-27,32.1,25.0,16.1,21.7,18.0,9.9,84,75,59,29.97,29.73,20,8,27,0.00
2012-12-28,26.6,21.6,11.7,21.6,13.4,6.6,84,71,52,30.05,29.82,24,9,24,0.00
2012-12-29,11.6,11.0,10.5,6.6,6.0,5.5,81,80,80,30.07,30.05,7,3,7,0.00
2012-12-30,47.3,36.5,25.6,21.8,19.1,14.8,66,50,30,30.13,29.88,36,18,47,0.00
2012-12-31,36.2,27.1,21.3,26.6,22.5,19.9,97,84,53,30.05,29.86,16,9,21,0.00